N9XP-9 Weather Reports


time (UTC)temp
C
wind
direction
speed
KPH
gust
KPH
rain 1hr
cm
rain 24hr
cm
rain mn
cm
humidity
%
barometer
mb
20260504043038 12 149 0.0 3.2 0.00 0.08 0.08 72 1006.3
20260504041534 12 116 0.0 1.6 0.00 0.08 0.08 71 1006.3
20260504040026 12 150 0.0 3.2 0.00 0.08 0.08 69 1006.3
20260504034526 13 137 0.0 1.6 0.00 0.08 0.08 67 1006.3
20260504033029 13 131 0.0 3.2 0.00 0.08 0.08 65 1006.5
20260504031525 14 155 0.0 6.4 0.00 0.08 0.08 63 1006.6
20260504030027 14 183 0.0 4.8 0.00 0.08 0.08 62 1006.7
20260504024523 15 147 0.0 4.8 0.00 0.08 0.08 62 1006.7
20260504023027 15 139 0.0 11.3 0.00 0.08 0.08 61 1006.6
20260504021523 15 155 1.6 6.4 0.00 0.08 0.08 60 1006.6
20260504020025 15 145 0.0 4.8 0.00 0.08 0.08 59 1006.5
20260504014531 16 179 0.0 6.4 0.00 0.08 0.08 58 1006.3
20260504013022 16 146 1.6 8.0 0.00 0.08 0.08 57 1006.2
20260504011523 16 158 0.0 8.0 0.00 0.08 0.08 56 1006.1
20260504010019 17 142 1.6 8.0 0.00 0.08 0.08 55 1005.9
20260504004521 17 169 0.0 6.4 0.00 0.08 0.08 51 1006.0
20260504003019 18 156 3.2 9.7 0.00 0.08 0.08 49 1006.1
20260504001518 18 150 4.8 11.3 0.00 0.08 0.08 48 1006.1
20260504000016 19 184 4.8 14.5 0.00 0.08 0.08 46 1006.1
20260503234517 19 174 4.8 20.9 0.00 0.08 0.08 45 1006.0
20260503233016 20 258 4.8 22.5 0.00 0.08 0.08 43 1006.1
20260503231517 20 197 8.0 20.9 0.00 0.08 0.08 42 1006.2
20260503230017 20 219 4.8 24.1 0.00 0.08 0.08 42 1006.3
20260503224516 20 116 4.8 16.1 0.00 0.08 0.08 44 1006.4
20260503223014 20 123 3.2 22.5 0.00 0.08 0.08 44 1006.5
20260503221512 20 169 6.4 19.3 0.00 0.08 0.08 42 1006.5
20260503220007 20 169 4.8 20.9 0.00 0.08 0.08 43 1006.7
20260503214504 19 136 9.7 27.4 0.00 0.08 0.08 42 1006.9
20260503213001 18 130 14.5 30.6 0.00 0.08 0.08 42 1007.1
20260503211557 18 143 9.7 20.9 0.00 0.08 0.08 44 1007.4
20260503210057 18 144 8.0 32.2 0.00 0.08 0.08 43 1007.7
20260503204553 18 164 9.7 37.0 0.00 0.08 0.08 43 1008.0
20260503203055 18 160 8.0 27.4 0.00 0.08 0.08 42 1008.4
20260503201549 18 221 11.3 30.6 0.00 0.08 0.08 41 1008.7
20260503200047 17 174 9.7 30.6 0.00 0.08 0.08 42 1008.8
20260503194545 18 196 11.3 32.2 0.00 0.08 0.08 44 1009.1
20260503193045 17 143 12.9 29.0 0.00 0.08 0.08 49 1009.1
20260503191539 16 153 11.3 27.4 0.00 0.08 0.08 53 1009.3
20260503190037 15 127 6.4 20.9 0.00 0.08 0.08 59 1009.4
20260503184528 15 167 8.0 25.7 0.00 0.08 0.08 59 1009.8
20260503183024 14 115 9.7 25.7 0.00 0.08 0.08 63 1010.2
20260503181520 12 132 11.3 24.1 0.00 0.08 0.08 65 1010.5
20260503180016 12 124 6.4 27.4 0.03 0.08 0.08 69 1010.9
20260503174511 12 126 4.8 17.7 0.03 0.08 0.08 72 1011.1
20260503173009 10 141 6.4 19.3 0.03 0.08 0.08 79 1012.0
20260503171507 10 109 4.8 17.7 0.05 0.08 0.08 82 1012.3
20260503160116 8 151 3.2 9.7 0.03 0.03 0.03 85 1014.1
20260503081556 6 108 0.0 3.2 0.00 0.00 0.00 66 1015.7
20260503071553 5 134 0.0 1.6 0.00 0.00 0.00 67 1015.9
20260503060107 5 142 0.0 1.6 0.00 0.00 0.00 66 1016.6
20260503054541 5 126 0.0 1.6 0.00 0.00 0.00 66 1016.7
20260503053039 5 138 0.0 0.0 0.00 0.00 0.00 65 1016.8
20260503051536 5 136 0.0 0.0 0.00 0.00 0.00 65 1016.8
20260503050035 6 136 0.0 1.6 0.00 0.00 0.00 64 1017.0
20260503044534 6 154 0.0 1.6 0.00 0.00 0.00 65 1016.9